目前分類:開盒報告 (41)

瀏覽方式: 標題列表 簡短摘要
發表時間 文章標題 人氣 留言
2016-08-29 BRONCO威駿 1/48 CURTISS P-40C(HAWK81-A2)寇帝斯 P-40C飛虎隊 (256) (0)
2016-08-29 KINETIC 1/48 ROCAF F-16A/B 70TH FLYING TIGERS (258) (0)
2016-04-11 造型村 A-1H SKYRAIDER U.S.NAVY (171) (1)
2014-05-11 KINETIC 1/48 ROCAF Mirage2000-5EI (766) (7)
2014-04-18 KITTY HAWK 1/48 SH-2F (503) (0)
2014-04-15 MRC 1/48 H-34 (173) (0)
2014-04-11 TRUMPETER 1/48 HU-16A (276) (2)
2012-12-14 ACADEMY 1/48 R.O.C.N 500MD/ASW (288) (5)
2011-10-24 ITALERI 1/48 S-3A/B (129) (1)
2011-10-15 模力堂 1/48 AT-3自強號戰機 (1431) (3)
2011-04-23 AFV CLUB 1/48 F-5F (384) (1)
2011-04-09 KINETIC 1/48 M2000-5DI (218) (2)
2011-04-04 KINETIC 1/48 S-2F (387) (5)
2011-04-03 TRUMPETER 1/48 F-100F (176) (2)
2010-11-22 1/48 TA-4J SKY HAWK (56) (0)
2010-11-15 AFV CLUB 1/48 R.O.C. F-5E (700) (0)
2010-09-16 KINETIC 1/48 E-2C HAWKEYE 2000 (258) (3)
2010-08-18 AFV CLUB 1/48 RF-5E (158) (2)
2010-08-10 TRUMPETER 1/72 FBC-1 (73) (0)
2010-06-10 TAMIYA 1/48 U.S.NAVY PILOTS w/"MOTO-TUG" (83) (2)
2010-05-30 1/72 小號手F-8II FINBACK-B (208) (2)
2010-04-26 AFV CLUB 1/48 NORTHROP F-5E (95) (2)
2010-04-21 TAMIYA 1/48 P-51D (130) (2)
2010-04-18 TRUMPETER 1/48 F-100C SUPER SABRE (89) (1)
2009-10-02 ACADEMY 1/48 CH-46E直升機 (116) (3)
2009-09-29 ACADEMY 1/35 OH-58D (223) (2)
2009-08-21 KINETIC 1/48 ROCAF F-16A/B (1538) (10)
2009-08-18 KINETIC 1/48 ISRAEL F-16I (373) (2)
2009-04-29 ITALERY 1/72 C-119G FLYING BOX CAR 飛行箱車 (78) (2)
2008-12-26 1/32 小號手SBD-1/2無畏式 (293) (10)
2008-11-18 AFV戰鷹1/35 S-70C空軍海鷗救護直昇機 (975) (10)
2008-09-18 小號手1/48 C-47A SKYTRAIN (158) (8)
2008-09-02 TAMIYA 1/72 SUKHOI SU-34 (497) (2)
2008-08-17 FUJIMI 1/72 E-2K HAWKEYE 2000中民國空軍塗裝 (111) (1)
2008-07-30 Revell 1/144 Airbus A380 (311) (4)
2008-07-30 虎翼1/48F-86國軍水貼 (192) (0)
2008-07-27 ACADEMY 1/48 F-86F MIG KILLER (377) (7)
2008-07-23 TESTORS 1/48 T-33A Trainer (100) (2)
2008-02-21 TAMIYA 1/32 三菱海軍零式艦上戰鬥機21型 (322) (3)
2008-02-08 TAMIYA 1/48 F4U-1D (617) (0)
2008-02-08 ACADEMY 1/48 CH-53E超級種馬 (608) (7)
找更多相關文章與討論